Showing default

COSMOS 2497, 39762

Orbit data source: Space-Track

COSMOS 2497, 39762 is a payload satellite owned by VVKO (CIS) in LEO that was launched on Fri, 23 May 2014 UTC via an ROKOT launch vehicle from the Plesetsk Missile And Space Complex (PKMTR). Payload-class satellites include a variety of spacecraft equipped with specific instruments for various scientific and technological missions. These include communications satellites like Starlink; space stations such as the ISS; scientific satellites like the Hubble; Earth observation satellites from companies like Planet Labs, Umbra, and HawkEye 360; GPS; miniature CubeSats for education and research; and military/defense satellites.

Loading next visibility...
Identifier
39762, 2014-028B
Orbit
LEO
Country
Flag of CISCIS
Related business
Manufacturer
Resehetnev ISS
Mission
Operational Defense Communications
Bus & Motor
STRELA-3M, Unknown motor
Mass
280 kg wet, 280 kg dry
Launch date (UTC)
2014-05-23 (12 years ago)
Launch vehicle
ROKOT
Launch site
Plesetsk Missile And Space Complex (PKMTR)
Object type
Payload
Rocket body
Debris
Shape & HBR
Cyl + 1 Ant, 3.5 m
Radar Cross Section
1.583 m², Large (>1 m²)

Expand to show TLE details & history
Last TLE update: 15 hours ago

TLE from 15 hours ago
0 COSMOS 2497
1 39762U 14028B   25349.94734765  .00000020  00000-0  69726-4 0  9996
2 39762  82.4504 225.0933 0020690 112.2349 248.0928 12.42870854524752
Epoch: 2025-12-15T22:44Z
TLE epoch observation values (Epoch: 2025-12-15T22:44:10.836Z)
Latitude
-0.00002°
Longitude
159.20954°
Altitude
1,503.262 km
Speed
7.11 km/s
True Right ascension
15h 00m 22s
True Declination
0° 00' 00"
Sunlit
Object was in daylight at epoch
Visualization orbit readout
Latitude
Unknown
Longitude
Unknown
Altitude
Unknown
Speed
Unknown
Apparent Right ascension
Unknown
Apparent Declination
Unknown
Sunlit
N/A
Visualization observer readout
Local Sidereal Time
12:48:31
Azimuth
Unknown
Elevation
Unknown
Doppler factor
Unknown
Orbital elements
Apogee altitude
1,508.093 km
Perigee altitude
1,475.527 km
Semi-major axis
7,869.947 km
Eccentricity
0.00207
Inclination
82.4504°
RAAN
225.0933°
Arg. of periapsis
112.2349°
True anomaly
247.87304°
Mean anomaly
248.0928°
Eccentric anomaly
247.9829°
Mean motion
3.10875 °/min
Orbital period
115.8 mins
BSTAR
0.000069726
Loading maneuver chart data...
Computing Atmospheric mass density...
Loading historical data...
Loading historical data...
Loading historical data...
Loading historical data...
Loading historical data...
Loading historical data...
Loading historical data...

Documentation

Showing up to 5 results
|